sat.trackr.live / text

‹ back to catalog

STARLINK-4550

NORAD 53570 · 2022-101AV

PAYLOAD ACTIVE UNKNOWN

§ Identity

Operator
Country
US
Launch date
2022-08-19
Launch site
AFETR
Launch vehicle
Mass (kg)
RCS (m²)

Purposes: comms

External: N2YO · Heavens-Above · Gunter

§ Orbital elements

Epoch: 2026-09-19T22:41:26.866176Z

Period
93.90 min
Inclination
53.1604°
Eccentricity
0.0001141
Mean motion
15.33546957 rev/d
Perigee alt
464.5 km
Apogee alt
466.0 km
Semi-major
6,843.4 km
B*
3.8172e-5
RAAN
246.5185°
Arg perigee
101.9640°
Mean anomaly
258.1491°
Rev number
22,667

§ Raw data

STARLINK-45501 53570U 22101AV  26262.94544984  .00000883  00000+0  38172-4 0  99942 53570  53.1604 246.5185 0001141 101.9640 258.1491 15.33546957226671

JSON: /api/v1/satellites/53570 · /tle

For live sub-satellite position, see the globe view (requires WebGL).

§ Visibility from observer

Set your observer location to see the next 7 days of passes ≥ 10°. The values pass through the URL so the page stays shareable.

No JS? Fill the form by hand. The geolocation button needs JavaScript.